Location: Banios
(43.0451°N, 0.2335°E)
Time: 13:49:06
(UTC+00:00)

Cosmos 1937 Rocket - Pass Details

Date: 25 January 2021
Orbit: 746 x 780 km, 74.1° (Epoch: 25 February)

Event Time Altitude Azimuth Distance (km) Brightness Sun altitude
Exits shadow 04:33:45 51° 129° (SE) 959 4.1 -30.5°
Drops below altitude 10° 04:37:44 10° 152° (SSE) 2,291 6.2 -29.7°
Sets 04:40:06 0° 155° (SSE) 3,207 7.0 -29.3°
